This is the latest recevied weather packets stored in our database for station/object N5PA. If no packets are shown the sender has not sent any weather packets the latest 10 day(s).
| Time | Temp. | Humidity | Pressure | Rain* | Wind** | Luminosity | Snow |
|---|---|---|---|---|---|---|---|
| 1778144707 | 20° C | 23% | 1010.8 hPa | 0.25 mm | - | 1011 W/m² | - |
| 1778144407 | 20° C | 23% | 1011 hPa | 0.25 mm | - | 1011 W/m² | - |
| 1778144107 | 20° C | 23% | 1011 hPa | 0.25 mm | - | 1009 W/m² | - |
| 1778143805 | 20° C | 23% | 1011.1 hPa | 0.25 mm | - | 1009 W/m² | - |
| 1778143506 | 20° C | 22% | 1010.7 hPa | 0.51 mm | - | 1009 W/m² | - |
| 1778143206 | 20.56° C | 22% | 1010.3 hPa | 0.76 mm | - | 1009 W/m² | - |
| 1778142906 | 20.56° C | 21% | 1010.6 hPa | 0.76 mm | - | 1009 W/m² | - |
| 1778142607 | 21.11° C | 20% | 1010.8 hPa | 0.76 mm | - | 1007 W/m² | - |
| 1778142307 | 21.11° C | 20% | 1010.5 hPa | 0.76 mm | - | 1005 W/m² | - |
| 1778142008 | 21.11° C | 20% | 1010.4 hPa | 0.51 mm | - | 1005 W/m² | - |
| 1778141706 | 21.11° C | 20% | 1010.4 hPa | 0.51 mm | - | 1005 W/m² | - |
| 1778141407 | 21.67° C | 19% | 1010.4 hPa | 0.51 mm | - | 1004 W/m² | - |
| 1778141106 | 21.67° C | 19% | 1010.7 hPa | 0.76 mm | - | 1004 W/m² | - |
| 1778140807 | 21.67° C | 19% | 1010.6 hPa | 0.76 mm | - | 1004 W/m² | - |
| 1778140507 | 21.67° C | 19% | 1010.6 hPa | 0.76 mm | - | 1004 W/m² | - |
| 1778140208 | 21.67° C | 19% | 1010.6 hPa | 1.02 mm | - | 1002 W/m² | - |
| 1778139907 | 21.67° C | 19% | 1010.8 hPa | 0.76 mm | - | 1002 W/m² | - |
| 1778139606 | 21.67° C | 19% | 1010.8 hPa | 0.51 mm | - | 1002 W/m² | - |
| 1778139307 | 21.67° C | 19% | 1011.1 hPa | 0.51 mm | - | 1002 W/m² | - |
| 1778139006 | 21.67° C | 19% | 1011 hPa | 0.51 mm | - | 1000 W/m² | - |
| 1778138706 | 22.22° C | 19% | 1010.9 hPa | 0.51 mm | - | 998 W/m² | - |
| 1778138406 | 22.22° C | 19% | 1011 hPa | 0.51 mm | - | 998 W/m² | - |
| 1778138107 | 21.67° C | 20% | 1011 hPa | 0.51 mm | - | 1000 W/m² | - |
| 1778137807 | 21.67° C | 20% | 1011 hPa | 0.51 mm | - | 1000 W/m² | - |
| 1778137506 | 21.67° C | 20% | 1011.2 hPa | 0.25 mm | - | 1000 W/m² | - |
* Rain latest hour (hover to see other rain measurements)
** Current wind speed in m/s (hover to see current wind gust speed)